TITAN 3C TRANSTAGE DEB, 20102

Orbit data source: Space-Track

TITAN 3C TRANSTAGE DEB, 20102 is space debris in HEO originally from a launch on Tue, 21 Dec 1965 UTC launched from the Air Force Eastern Test Range (AFETR). Debris objects in space refer to the collection of defunct objects orbiting the Earth. Examples of debris include non-operational satellites, rocket bodies, and fragments generated from explosions, collisions, or faulty payload assembly.

Loading next visibility...
Identifier
20102, 1965-108AC
Orbit
HEO
Country
Flag of USUS
Related business
Manufacturer
Unknown
Mission
Spacecraft
Bus & Motor
Unknown
Mass
Unknown
Launch date (UTC)
Icon of a cake. It is the launch day of the satellite!1965-12-21 (60 years ago)
Launch vehicle
Unknown
Launch site
Air Force Eastern Test Range (AFETR)
Object type
Payload
Rocket body
Debris
Shape & HBR
Unknown shape, 0.1 m
Radar Cross Section
Small (<0.1 m²)

Expand to show TLE details & history
Last TLE update: 2 weeks ago

TLE from 2 weeks ago
0 TITAN 3C TRANSTAGE DEB
1 20102U 65108AC  25342.51495101  .00000290  00000-0  25314-2 0  9995
2 20102  26.5625 148.4584 6766995  72.8648 355.3423  2.75675873315273
Epoch: 2025-12-08T12:21Z
TLE epoch observation values (Epoch: 2025-12-08T12:21:31.767Z)
Latitude
17.10553°
Longitude
-76.73421°
Altitude
1,017.483 km
Speed
9.448 km/s
True Right ascension
12h 24m 38s
True Declination
17° 00' 45"
Sunlit
Object was in daylight at epoch
Visualization orbit readout
Latitude
Unknown
Longitude
Unknown
Altitude
Unknown
Speed
Unknown
Apparent Right ascension
Unknown
Apparent Declination
Unknown
Sunlit
N/A
Visualization observer readout
Local Sidereal Time
18:18:49
Azimuth
Unknown
Elevation
Unknown
Doppler factor
Unknown
Orbital elements
Apogee altitude
29,651.857 km
Perigee altitude
569.151 km
Semi-major axis
21,488.641 km
Eccentricity
0.6767
Inclination
26.5625°
RAAN
148.4584°
Arg. of periapsis
72.8648°
True anomaly
328.52196°
Mean anomaly
355.3423°
Eccentric anomaly
345.89084°
Mean motion
0.68902 °/min
Orbital period
522.48 mins
BSTAR
0.0025314
Loading maneuver chart data...
Computing Atmospheric mass density...

Documentation

Showing up to 5 results
|